GORIZONT 10 [-]

Last updated on Wed Jun 28 2023 00:02:54 GMT+0000 (Coordinated Universal Time)

1 15144U 84078A 23177.61018267 .00000130 00000+0 00000+0 0 9995 2 15144 10.9162 321.2034 0001471 157.6403 220.4665 1.00333567143719
UTC large
Height (km)
Speed (km/s)
/
Latitude / Longitude
Inclination (degrees)
Orbital Period (minutes)
Azimuth
Elevation
Range (km)
Doppler Factor

Next 0 passes for location: London (51.5072 / 0.1276)

Sorry there are no passes over London.
GORIZONT 10 [-]